�������l�o���
Date,Time,MP-1(��Sv/h),MP-2(��Sv/h),MP-3(��Sv/h),MP-4(��Sv/h),MP-5(��Sv/h),MP-6(��Sv/h),MP-7(��Sv/h),MP-8(��Sv/h),����,����(m/s),���J
2023/02/14,00:00,0.543,0.780,0.495,1.002,0.685,0.316,0.572,0.544,�k�k��,10.2,��
2023/02/14,00:10,0.545,0.782,0.494,1.003,0.688,0.316,0.573,0.543,�k�k��,10.0,��
2023/02/14,00:20,0.544,0.781,0.494,1.004,0.689,0.316,0.572,0.546,�k�k��,10.2,��
2023/02/14,00:30,0.543,0.781,0.495,1.005,0.688,0.316,0.574,0.545,�k�k��,8.7,��
2023/02/14,00:40,0.544,0.780,0.495,1.003,0.688,0.316,0.572,0.545,�k,7.5,��
2023/02/14,00:50,0.546,0.780,0.495,1.002,0.689,0.316,0.573,0.544,�k�k��,8.0,��
2023/02/14,01:00,0.544,0.780,0.493,1.004,0.689,0.316,0.573,0.545,�k,8.4,��
2023/02/14,01:10,0.544,0.780,0.493,1.005,0.687,0.316,0.572,0.546,�k,7.7,��
2023/02/14,01:20,0.543,0.780,0.494,1.005,0.687,0.315,0.572,0.546,�k,8.7,��
2023/02/14,01:30,0.544,0.781,0.494,1.005,0.688,0.314,0.572,0.544,�k�k��,7.2,��
2023/02/14,01:40,0.545,0.778,0.493,1.003,0.686,0.315,0.572,0.544,�k�k��,6.2,��
2023/02/14,01:50,0.545,0.778,0.492,1.006,0.687,0.317,0.573,0.545,�k�k��,6.4,��
2023/02/14,02:00,0.542,0.779,0.493,1.004,0.688,0.316,0.573,0.545,�k�k��,8.7,��
2023/02/14,02:10,0.544,0.780,0.493,1.003,0.687,0.316,0.572,0.544,�k�k��,8.8,��
2023/02/14,02:20,0.543,0.778,0.493,1.003,0.688,0.315,0.573,0.546,�k�k��,8.5,��
2023/02/14,02:30,0.543,0.778,0.494,1.005,0.689,0.315,0.573,0.545,�k�k��,8.4,��
2023/02/14,02:40,0.546,0.782,0.493,1.006,0.688,0.317,0.572,0.543,�k�k��,10.3,��
2023/02/14,02:50,0.542,0.781,0.493,1.006,0.688,0.315,0.573,0.546,�k�k��,8.3,��
2023/02/14,03:00,0.546,0.778,0.493,1.004,0.689,0.315,0.572,0.543,�k,9.8,��
2023/02/14,03:10,0.544,0.780,0.493,1.005,0.687,0.314,0.572,0.544,�k�k��,10.3,��
2023/02/14,03:20,0.543,0.780,0.494,1.004,0.690,0.315,0.571,0.544,�k�k��,8.5,��
2023/02/14,03:30,0.545,0.780,0.493,1.004,0.687,0.315,0.573,0.545,�k,6.6,��
2023/02/14,03:40,0.543,0.780,0.493,1.005,0.689,0.314,0.573,0.543,�k�k��,8.7,��
2023/02/14,03:50,0.544,0.782,0.494,1.006,0.690,0.314,0.573,0.544,�k�k��,8.3,��
2023/02/14,04:00,0.543,0.781,0.492,1.008,0.689,0.314,0.573,0.545,�k�k��,6.9,��
2023/02/14,04:10,0.544,0.781,0.494,1.005,0.688,0.315,0.573,0.545,�k�k��,6.4,��
2023/02/14,04:20,0.544,0.781,0.493,1.003,0.688,0.315,0.574,0.544,�k,6.4,��
2023/02/14,04:30,0.544,0.781,0.494,1.004,0.689,0.316,0.574,0.545,�k�k��,7.6,��
2023/02/14,04:40,0.544,0.781,0.492,1.007,0.688,0.316,0.574,0.545,�k�k��,6.5,��
2023/02/14,04:50,0.544,0.781,0.493,1.004,0.687,0.316,0.572,0.546,�k�k��,5.9,��
2023/02/14,05:00,0.545,0.779,0.493,1.003,0.689,0.315,0.572,0.545,�k�k��,7.7,��
2023/02/14,05:10,0.544,0.781,0.493,1.005,0.688,0.316,0.573,0.546,�k�k��,9.6,��
2023/02/14,05:20,0.544,0.782,0.492,1.006,0.688,0.315,0.573,0.544,�k�k��,8.5,��
2023/02/14,05:30,0.544,0.781,0.494,1.005,0.688,0.315,0.572,0.544,�k�k��,8.0,��
2023/02/14,05:40,0.543,0.781,0.494,1.004,0.688,0.316,0.571,0.544,�k�k��,8.9,��
2023/02/14,05:50,0.543,0.779,0.493,1.004,0.689,0.314,0.573,0.543,�k�k��,8.2,��
2023/02/14,06:00,0.545,0.781,0.493,1.005,0.689,0.316,0.573,0.543,�k�k��,8.2,��
2023/02/14,06:10,0.543,0.779,0.494,1.003,0.689,0.315,0.571,0.543,�k�k��,8.2,��
2023/02/14,06:20,0.544,0.782,0.493,1.006,0.687,0.315,0.573,0.543,�k�k��,8.0,��
2023/02/14,06:30,0.543,0.780,0.492,1.004,0.688,0.315,0.574,0.545,�k�k��,8.1,��
2023/02/14,06:40,0.544,0.779,0.493,1.005,0.688,0.314,0.571,0.545,�k�k��,8.7,��
2023/02/14,06:50,0.544,0.781,0.493,1.006,0.688,0.316,0.573,0.544,�k�k��,7.8,��
2023/02/14,07:00,0.545,0.779,0.494,1.006,0.688,0.314,0.573,0.545,�k�k��,7.6,��
2023/02/14,07:10,0.544,0.781,0.493,1.005,0.688,0.316,0.573,0.545,�k�k��,6.9,��
2023/02/14,07:20,0.545,0.780,0.495,1.005,0.687,0.315,0.571,0.544,�k�k��,6.6,��
2023/02/14,07:30,0.545,0.779,0.494,1.005,0.687,0.315,0.574,0.545,�k�k��,6.2,��
2023/02/14,07:40,0.544,0.782,0.494,1.006,0.686,0.315,0.571,0.546,�k�k��,4.5,��
2023/02/14,07:50,0.543,0.780,0.492,1.005,0.688,0.315,0.572,0.545,�k�k��,5.6,��
2023/02/14,08:00,0.543,0.780,0.495,1.006,0.688,0.316,0.575,0.545,�k�k��,6.5,��
2023/02/14,08:10,0.544,0.781,0.496,1.005,0.686,0.314,0.572,0.543,�k,5.2,��
2023/02/14,08:20,0.545,0.782,0.494,1.008,0.687,0.315,0.574,0.545,�k,5.5,��
2023/02/14,08:30,0.544,0.780,0.494,1.006,0.690,0.314,0.573,0.545,�k�k��,4.7,��
2023/02/14,08:40,0.544,0.781,0.494,1.005,0.690,0.315,0.573,0.544,�k�k��,4.3,��
2023/02/14,08:50,0.543,0.782,0.493,1.005,0.689,0.315,0.573,0.546,�k,3.1,��
2023/02/14,09:00,0.544,0.782,0.495,1.008,0.690,0.315,0.573,0.545,�k�k��,5.1,��
2023/02/14,09:10,0.545,0.783,0.495,1.007,0.689,0.315,0.575,0.544,�k�k��,5.0,��
2023/02/14,09:20,0.544,0.784,0.493,1.007,0.691,0.316,0.574,0.545,�k�k��,4.7,��
2023/02/14,09:30,0.545,0.783,0.495,1.007,0.690,0.315,0.573,0.546,�k��,7.9,��
2023/02/14,09:40,0.547,0.784,0.495,1.007,0.690,0.318,0.573,0.544,���k��,6.4,��
2023/02/14,09:50,0.545,0.785,0.496,1.007,0.693,0.317,0.573,0.546,���k��,4.5,��
2023/02/14,10:00,0.547,0.784,0.496,1.009,0.691,0.317,0.574,0.545,���k��,6.8,��
2023/02/14,10:10,0.546,0.784,0.496,1.008,0.690,0.315,0.573,0.545,�k��,4.1,��
2023/02/14,10:20,0.547,0.782,0.497,1.006,0.693,0.316,0.572,0.546,�k�k��,7.7,��
2023/02/14,10:30,0.549,0.783,0.498,1.008,0.695,0.316,0.574,0.547,�k��,6.9,��
2023/02/14,10:40,0.548,0.784,0.496,1.010,0.694,0.317,0.575,0.544,�k��,5.8,��
2023/02/14,10:50,0.547,0.785,0.497,1.009,0.694,0.316,0.574,0.545,�k��,5.1,��
2023/02/14,11:00,0.549,0.789,0.498,1.010,0.694,0.317,0.574,0.547,�k��,4.6,��
2023/02/14,11:10,0.547,0.786,0.499,1.010,0.693,0.318,0.574,0.545,�k�k��,5.5,��
2023/02/14,11:20,0.548,0.784,0.499,1.008,0.694,0.318,0.575,0.546,�k�k��,5.8,��
2023/02/14,11:30,0.548,0.785,0.499,1.010,0.694,0.318,0.575,0.547,�k�k��,7.3,��
2023/02/14,11:40,0.549,0.787,0.500,1.008,0.696,0.317,0.574,0.546,�k�k��,5.5,��
2023/02/14,11:50,0.549,0.787,0.501,1.009,0.695,0.317,0.574,0.546,�k�k��,7.1,��
2023/02/14,12:00,0.548,0.788,0.501,1.011,0.695,0.317,0.573,0.547,�k�k��,4.3,��
2023/02/14,12:10,0.550,0.785,0.500,1.012,0.694,0.317,0.573,0.547,�k�k��,4.5,��
2023/02/14,12:20,0.551,0.788,0.499,1.012,0.693,0.318,0.572,0.547,�k�k��,3.0,��
2023/02/14,12:30,0.551,0.782,0.502,1.010,0.694,0.318,0.573,0.548,��쓌,2.0,��
2023/02/14,12:40,0.551,0.788,0.501,1.010,0.694,0.318,0.572,0.547,��,3.9,��
2023/02/14,12:50,0.551,0.787,0.500,1.011,0.695,0.319,0.574,0.549,�k�k��,3.7,��
2023/02/14,13:00,0.552,0.788,0.501,1.011,0.693,0.318,0.575,0.548,�k,2.5,��
2023/02/14,13:10,0.552,0.788,0.501,1.011,0.693,0.318,0.575,0.547,�k��,2.8,��
2023/02/14,13:20,0.551,0.789,0.499,1.008,0.696,0.317,0.574,0.548,��,6.7,��
2023/02/14,13:30,0.551,0.788,0.500,1.010,0.698,0.316,0.574,0.547,��,7.8,��
2023/02/14,13:40,0.550,0.787,0.501,1.014,0.696,0.319,0.572,0.547,���k��,7.6,�L
2023/02/14,13:50,0.550,0.788,0.499,1.014,0.698,0.318,0.572,0.548,�k��,11.0,�L
2023/02/14,14:00,0.551,0.787,0.501,1.012,0.696,0.318,0.575,0.547,�k��,11.3,�L
2023/02/14,14:10,0.549,0.787,0.502,1.014,0.697,0.319,0.575,0.547,���k��,8.7,�L
2023/02/14,14:20,0.551,0.788,0.499,1.014,0.697,0.319,0.574,0.545,���k��,10.0,��
2023/02/14,14:30,0.552,0.790,0.501,1.011,0.697,0.318,0.574,0.549,���k��,8.5,��
2023/02/14,14:40,0.553,0.792,0.501,1.014,0.698,0.319,0.576,0.549,���k��,8.6,��
2023/02/14,14:50,0.552,0.788,0.502,1.015,0.699,0.320,0.577,0.549,���k��,10.8,�L
2023/02/14,15:00,0.551,0.790,0.502,1.013,0.698,0.319,0.575,0.549,���k��,8.3,��
2023/02/14,15:10,0.552,0.792,0.501,1.014,0.700,0.319,0.576,0.549,�k��,7.0,�L
2023/02/14,15:20,0.552,0.791,0.502,1.015,0.699,0.318,0.575,0.549,�k��,8.2,��
2023/02/14,15:30,0.552,0.793,0.502,1.014,0.699,0.319,0.575,0.549,�k��,8.7,�L
2023/02/14,15:40,0.553,0.794,0.502,1.013,0.700,0.319,0.576,0.549,�k��,6.5,�L
2023/02/14,15:50,0.553,0.793,0.503,1.016,0.699,0.318,0.575,0.549,�k�k��,8.1,�L
2023/02/14,16:00,0.552,0.794,0.503,1.014,0.701,0.318,0.575,0.549,�k��,6.8,�L
2023/02/14,16:10,0.553,0.795,0.502,1.014,0.699,0.318,0.574,0.549,�k��,8.3,��
2023/02/14,16:20,0.552,0.793,0.503,1.013,0.700,0.317,0.575,0.550,�k��,8.4,��
2023/02/14,16:30,0.552,0.792,0.501,1.013,0.698,0.316,0.574,0.548,�k��,7.9,��
2023/02/14,16:40,0.551,0.794,0.501,1.014,0.698,0.316,0.576,0.548,�k��,6.9,��
2023/02/14,16:50,0.551,0.795,0.500,1.015,0.696,0.316,0.575,0.548,�k��,4.3,��
2023/02/14,17:00,0.551,0.792,0.500,1.012,0.698,0.317,0.575,0.548,�k��,4.9,��
2023/02/14,17:10,0.550,0.792,0.498,1.013,0.699,0.316,0.575,0.548,�k�k��,3.9,��
2023/02/14,17:20,0.550,0.791,0.501,1.009,0.697,0.317,0.575,0.548,�k�k��,3.1,��
2023/02/14,17:30,0.549,0.793,0.500,1.010,0.698,0.317,0.575,0.548,�k�k��,4.9,��
2023/02/14,17:40,0.550,0.789,0.501,1.010,0.698,0.317,0.574,0.547,�k�k��,5.9,��
2023/02/14,17:50,0.549,0.790,0.499,1.012,0.697,0.318,0.574,0.547,�k�k��,4.8,��
2023/02/14,18:00,0.548,0.791,0.500,1.009,0.698,0.317,0.574,0.547,�k�k��,6.5,��
2023/02/14,18:10,0.548,0.790,0.500,1.009,0.698,0.318,0.574,0.548,�k�k��,5.6,��
2023/02/14,18:20,0.548,0.791,0.500,1.010,0.697,0.317,0.574,0.548,�k�k��,4.8,��
2023/02/14,18:30,0.550,0.791,0.499,1.010,0.697,0.317,0.573,0.548,�k�k��,5.0,��
2023/02/14,18:40,0.549,0.789,0.501,1.009,0.696,0.316,0.574,0.547,�k�k��,4.6,��
2023/02/14,18:50,0.550,0.788,0.500,1.013,0.697,0.317,0.573,0.547,�k��,4.0,��
2023/02/14,19:00,0.548,0.790,0.499,1.010,0.695,0.317,0.575,0.547,�k��,3.5,��
2023/02/14,19:10,0.547,0.788,0.499,1.010,0.696,0.317,0.574,0.548,�k��,4.1,��
2023/02/14,19:20,0.545,0.789,0.499,1.009,0.697,0.316,0.573,0.546,���k��,3.2,��
2023/02/14,19:30,0.546,0.790,0.499,1.011,0.696,0.316,0.573,0.547,���k��,4.1,��
2023/02/14,19:40,0.548,0.789,0.499,1.010,0.695,0.316,0.572,0.546,���k��,3.5,��
2023/02/14,19:50,0.549,0.789,0.498,1.010,0.697,0.316,0.574,0.547,���k��,4.6,��
2023/02/14,20:00,0.546,0.790,0.499,1.010,0.695,0.317,0.575,0.546,�k��,7.2,��
2023/02/14,20:10,0.549,0.789,0.497,1.009,0.696,0.316,0.575,0.546,���k��,7.4,��
2023/02/14,20:20,0.547,0.791,0.497,1.009,0.697,0.317,0.575,0.545,���k��,6.8,��
2023/02/14,20:30,0.548,0.791,0.497,1.010,0.696,0.316,0.573,0.546,�k��,5.3,��
2023/02/14,20:40,0.547,0.791,0.496,1.010,0.698,0.316,0.574,0.546,�k��,5.0,��
2023/02/14,20:50,0.548,0.788,0.496,1.011,0.696,0.317,0.573,0.545,�k��,3.9,��
2023/02/14,21:00,0.548,0.788,0.498,1.012,0.698,0.317,0.573,0.546,�k��,7.7,��
2023/02/14,21:10,0.547,0.789,0.497,1.010,0.694,0.316,0.572,0.547,�k��,8.6,��
2023/02/14,21:20,0.547,0.790,0.497,1.010,0.696,0.314,0.574,0.545,�k��,6.7,��
2023/02/14,21:30,0.546,0.787,0.496,1.010,0.696,0.316,0.575,0.547,�k��,5.0,��
2023/02/14,21:40,0.547,0.789,0.497,1.007,0.696,0.315,0.572,0.546,�k��,5.5,��
2023/02/14,21:50,0.547,0.788,0.495,1.009,0.694,0.315,0.574,0.545,�k�k��,4.9,��
2023/02/14,22:00,0.545,0.787,0.496,1.011,0.696,0.316,0.572,0.546,�k�k��,4.2,��
2023/02/14,22:10,0.549,0.789,0.499,1.010,0.695,0.317,0.572,0.546,�k�k��,4.6,��
2023/02/14,22:20,0.548,0.788,0.498,1.010,0.698,0.316,0.573,0.547,�k�k��,3.7,��
2023/02/14,22:30,0.545,0.789,0.499,1.010,0.696,0.316,0.574,0.546,�k�k��,3.8,��
2023/02/14,22:40,0.545,0.790,0.497,1.009,0.697,0.316,0.572,0.547,�k,4.7,��
2023/02/14,22:50,0.548,0.788,0.497,1.009,0.696,0.315,0.572,0.546,�k�k��,4.6,��
2023/02/14,23:00,0.548,0.790,0.498,1.010,0.698,0.316,0.575,0.548,�k�k��,4.5,��
2023/02/14,23:10,0.546,0.787,0.500,1.009,0.695,0.316,0.575,0.546,�k,3.5,��
2023/02/14,23:20,0.547,0.790,0.498,1.012,0.697,0.316,0.573,0.546,�k,4.1,��
2023/02/14,23:30,0.547,0.790,0.496,1.010,0.696,0.316,0.573,0.546,�k�k��,3.9,��
2023/02/14,23:40,0.547,0.790,0.498,1.010,0.697,0.315,0.574,0.545,�k�k��,2.6,�L
2023/02/14,23:50,0.547,0.790,0.497,1.009,0.696,0.315,0.573,0.547,�k�k��,2.5,��
